[Date Prev][Date Next][Thread Prev][Thread Next] - [Date Index][Thread Index][Author Index]
2 Line ISS Keps 2-27
- Subject: [sarex] 2 Line ISS Keps 2-27
- From: "Dave Larsen PhD" <doc@xxxxxxxxxxx>
- Date: Sun, 27 Feb 2005 03:59:59 -0800
ISS
1 25544U 98067A 05058.37350694 .00013696 00000-0 11471-3 0 9043
2 25544 51.6460 102.5862 0004385 139.1224 50.4817 15.70303146358416
----
Via the sarex mailing list at AMSAT.ORG courtesy of AMSAT-NA.
To unsubscribe, send "unsubscribe sarex" to Majordomo@amsat.org
AMSAT Home